ARA127 DNSO-DNMM

Flight info

Callsign ARA127
Flight time N/A
Altitude 36000
Route SOK UB731 BUDSI BUDSI1N
Aircraft B737/M-SDE2E3FGHIRWXY/LB1

Departure

Time N/A
Airport Sadiq Abubakar III International Airport (DNSO)

Arrival

Time 2026-05-07 10:53
Airport Murtala Muhammed International Airport (DNMM)
Time Latitude Longitude Altitude Speed Heading
2026-05-07 10:35 7.87422 3.40369 22131 ft 362 kts 181°
2026-05-07 10:35 7.84925 3.40202 21639 ft 360 kts 181°
2026-05-07 10:35 7.82439 3.40036 21210 ft 356 kts 181°
2026-05-07 10:35 7.79975 3.39872 20803 ft 353 kts 181°
2026-05-07 10:36 7.77576 3.39694 20575 ft 343 kts 182°
2026-05-07 10:36 7.75188 3.39451 20108 ft 343 kts 184°
2026-05-07 10:36 7.72827 3.39182 19768 ft 339 kts 184°
2026-05-07 10:36 7.70476 3.38910 19256 ft 340 kts 184°
2026-05-07 10:37 7.68127 3.38640 18815 ft 340 kts 184°
2026-05-07 10:37 7.65782 3.38375 18385 ft 338 kts 184°
2026-05-07 10:37 7.63443 3.38113 17914 ft 337 kts 184°
2026-05-07 10:37 7.61118 3.37855 17469 ft 335 kts 183°
2026-05-07 10:38 7.58810 3.37600 17029 ft 332 kts 183°
2026-05-07 10:38 7.56521 3.37347 16617 ft 330 kts 183°
2026-05-07 10:38 7.54249 3.37097 16197 ft 328 kts 182°
2026-05-07 10:38 7.51990 3.36850 15779 ft 326 kts 182°
2026-05-07 10:39 7.49744 3.36603 15368 ft 324 kts 182°
2026-05-07 10:39 7.47509 3.36358 14948 ft 322 kts 181°
2026-05-07 10:39 7.45283 3.36115 14528 ft 321 kts 181°
2026-05-07 10:39 7.43062 3.35872 14095 ft 321 kts 181°
2026-05-07 10:40 7.40848 3.35630 13662 ft 320 kts 180°
2026-05-07 10:40 7.38637 3.35388 13213 ft 319 kts 180°
2026-05-07 10:40 7.36437 3.35147 12784 ft 317 kts 180°
2026-05-07 10:40 7.34253 3.34908 12354 ft 315 kts 180°
2026-05-07 10:41 7.32080 3.34670 11941 ft 313 kts 180°
2026-05-07 10:41 7.29962 3.34438 11652 ft 307 kts 180°
2026-05-07 10:41 7.25502 3.33951 10651 ft 310 kts 180°
2026-05-07 10:42 7.23355 3.33717 10216 ft 310 kts 180°
2026-05-07 10:42 7.21237 3.33484 9983 ft 301 kts 180°
2026-05-07 10:42 7.19145 3.33255 9542 ft 301 kts 180°
2026-05-07 10:42 7.17071 3.33029 9153 ft 299 kts 181°
2026-05-07 10:43 7.15009 3.32804 8766 ft 297 kts 181°
2026-05-07 10:43 7.12961 3.32580 8385 ft 295 kts 182°
2026-05-07 10:43 7.10930 3.32358 8007 ft 293 kts 182°
2026-05-07 10:43 7.08912 3.32139 7631 ft 291 kts 182°
2026-05-07 10:44 7.06899 3.32051 7215 ft 289 kts 177°
2026-05-07 10:44 7.04900 3.32085 6849 ft 286 kts 176°
2026-05-07 10:44 7.02912 3.32141 6482 ft 284 kts 176°
2026-05-07 10:44 7.00942 3.32195 6096 ft 283 kts 177°
2026-05-07 10:45 6.98986 3.32242 5723 ft 280 kts 177°
2026-05-07 10:45 6.97061 3.32309 5539 ft 270 kts 176°
2026-05-07 10:45 6.95199 3.32398 5119 ft 271 kts 177°
2026-05-07 10:45 6.93352 3.32451 5006 ft 260 kts 178°
2026-05-07 10:46 6.91580 3.32481 4939 ft 249 kts 178°
2026-05-07 10:46 6.89916 3.32503 4918 ft 235 kts 179°
2026-05-07 10:46 6.88336 3.32522 4930 ft 219 kts 179°
2026-05-07 10:46 6.86859 3.32540 4905 ft 201 kts 179°
2026-05-07 10:47 6.85541 3.32556 4915 ft 187 kts 178°
2026-05-07 10:47 6.84213 3.32573 4712 ft 191 kts 179°
2026-05-07 10:47 6.82904 3.32590 4463 ft 185 kts 179°
2026-05-07 10:47 6.81661 3.32606 4224 ft 173 kts 180°
2026-05-07 10:48 6.80504 3.32621 4014 ft 162 kts 180°
2026-05-07 10:48 6.79373 3.32635 3828 ft 165 kts 180°
2026-05-07 10:48 6.78207 3.32650 3611 ft 169 kts 180°
2026-05-07 10:48 6.77032 3.32664 3392 ft 168 kts 180°
2026-05-07 10:49 6.75873 3.32679 3208 ft 162 kts 180°
2026-05-07 10:49 6.74744 3.32694 3007 ft 160 kts 180°
2026-05-07 10:49 6.73646 3.32707 2780 ft 153 kts 180°
2026-05-07 10:49 6.72618 3.32720 2575 ft 143 kts 180°
2026-05-07 10:50 6.71622 3.32733 2395 ft 143 kts 181°
2026-05-07 10:50 6.70649 3.32745 2204 ft 136 kts 180°
2026-05-07 10:50 6.69700 3.32757 2059 ft 139 kts 180°
2026-05-07 10:50 6.68720 3.32769 1849 ft 141 kts 181°
2026-05-07 10:51 6.67736 3.32781 1678 ft 142 kts 181°
2026-05-07 10:51 6.66749 3.32801 1486 ft 142 kts 182°
2026-05-07 10:51 6.65811 3.32808 1326 ft 129 kts 181°
2026-05-07 10:51 6.64910 3.32818 1162 ft 127 kts 181°
2026-05-07 10:52 6.64031 3.32829 988 ft 126 kts 181°
2026-05-07 10:52 6.63162 3.32844 906 ft 129 kts 180°
2026-05-07 10:52 6.62237 3.32855 743 ft 133 kts 182°
2026-05-07 10:52 6.61307 3.32858 562 ft 134 kts 180°
2026-05-07 10:53 6.60381 3.32877 372 ft 131 kts 181°
2026-05-07 10:53 6.59499 3.32891 150 ft 120 kts 181°
2026-05-07 10:53 6.58765 3.32897 126 ft 85 kts 179°
2026-05-07 10:53 6.58319 3.32902 118 ft 49 kts 179°
2026-05-07 10:54 6.58066 3.32923 110 ft 22 kts 131°
2026-05-07 10:54 6.58073 3.33045 110 ft 8 kts 30°
2026-05-07 10:54 6.58129 3.33047 112 ft 8 kts 358°
2026-05-07 10:54 6.58183 3.33046 114 ft 8 kts 359°
2026-05-07 10:55 6.58235 3.33046 116 ft 7 kts 360°
2026-05-07 10:55 6.58286 3.33045 119 ft 7 kts 359°
2026-05-07 10:55 6.58318 3.33045 120 ft 7 kts
2026-05-07 10:55 6.58362 3.33061 119 ft 7 kts 49°
2026-05-07 10:56 6.58369 3.33123 124 ft 7 kts 83°
2026-05-07 10:56 6.58388 3.33146 121 ft 7 kts 26°
2026-05-07 10:56 6.58431 3.33156 126 ft 6 kts 40°
2026-05-07 10:56 6.58448 3.33198 125 ft 6 kts 74°
2026-05-07 10:57 6.58449 3.33202 125 ft 0 kts 74°